This is the latest recevied weather packets stored in our database for station/object CR7BQX-11. If no packets are shown the sender has not sent any weather packets the latest 10 day(s).
| Time | Temp. | Humidity | Pressure | Rain* | Wind** | Luminosity | Snow |
|---|---|---|---|---|---|---|---|
| 1777478323 | 21.67° C | 55% | 996.5 hPa | - | - | - | - |
| 1777476522 | 23.89° C | 51% | 995.6 hPa | - | - | - | - |
| 1777471121 | 23.33° C | 56% | 995.9 hPa | - | - | - | - |
| 1777469321 | 23.89° C | 54% | 995.6 hPa | - | - | - | - |
| 1777468422 | 24.44° C | 53% | 995.7 hPa | - | - | - | - |
| 1777467520 | 24.44° C | 53% | 995.5 hPa | - | - | - | - |
| 1777465720 | 24.44° C | 53% | 995.4 hPa | - | - | - | - |
| 1777464820 | 24.44° C | 53% | 995.1 hPa | - | - | - | - |
| 1777463920 | 24.44° C | 53% | 995.8 hPa | - | - | - | - |
| 1777463020 | 24.44° C | 53% | 995.9 hPa | - | - | - | - |
| 1777461219 | 24.44° C | 53% | 996.2 hPa | - | - | - | - |
| 1777460319 | 24.44° C | 53% | 995.9 hPa | - | - | - | - |
| 1777459419 | 24.44° C | 53% | 995.9 hPa | - | - | - | - |
| 1777458519 | 24.44° C | 53% | 995.9 hPa | - | - | - | - |
| 1777457619 | 24.44° C | 54% | 995.6 hPa | - | - | - | - |
| 1777456723 | 24.44° C | 54% | 995.7 hPa | - | - | - | - |
| 1777454922 | 24.44° C | 53% | 995.6 hPa | - | - | - | - |
| 1777454023 | 24.44° C | 54% | 995.3 hPa | - | - | - | - |
| 1777453122 | 24.44° C | 54% | 995.5 hPa | - | - | - | - |
| 1777452222 | 24.44° C | 54% | 995.9 hPa | - | - | - | - |
| 1777451322 | 24.44° C | 54% | 995.6 hPa | - | - | - | - |
| 1777450421 | 24.44° C | 54% | 995.7 hPa | - | - | - | - |
| 1777449520 | 24.44° C | 54% | 995.5 hPa | - | - | - | - |
| 1777447720 | 24.44° C | 54% | 995.3 hPa | - | - | - | - |
| 1777446820 | 25° C | 54% | 995.3 hPa | - | - | - | - |
* Rain since midnight (hover to see other rain measurements)
** Current wind speed in m/s (hover to see current wind gust speed)